This is the latest recevied weather packets stored in our database for station/object W0VI. If no packets are shown the sender has not sent any weather packets the latest 10 day(s).
| Time | Temp. | Humidity | Pressure | Rain* | Wind** | Luminosity | Snow |
|---|---|---|---|---|---|---|---|
| 1778069196 | 1.11° C | 71% | 1015.9 hPa | 0 mm | - | 48 W/m² | - |
| 1778068893 | 1.11° C | 72% | 1015.6 hPa | 0 mm | - | 43 W/m² | - |
| 1778068591 | 0.56° C | 74% | 1015.6 hPa | 0 mm | - | 40 W/m² | - |
| 1778068289 | 0.56° C | 75% | 1015.4 hPa | 0 mm | - | 29 W/m² | - |
| 1778067986 | 0° C | 75% | 1015.5 hPa | 0 mm | - | 27 W/m² | - |
| 1778067684 | 0° C | 75% | 1015.4 hPa | 0 mm | - | 27 W/m² | - |
| 1778067382 | 0° C | 76% | 1015.5 hPa | 0 mm | - | 25 W/m² | - |
| 1778067079 | 0° C | 76% | 1015.2 hPa | 0 mm | - | 21 W/m² | - |
| 1778066775 | 0° C | 76% | 1015.3 hPa | 0 mm | - | 18 W/m² | - |
| 1778066473 | 0° C | 76% | 1015.2 hPa | 0 mm | - | 13 W/m² | - |
| 1778066170 | 0° C | 76% | 1015.4 hPa | 0 mm | - | 11 W/m² | - |
| 1778065868 | 0° C | 76% | 1015.5 hPa | 0 mm | - | 8 W/m² | - |
| 1778065565 | -0.56° C | 76% | 1015.4 hPa | 0 mm | - | 4 W/m² | - |
| 1778065263 | -0.56° C | 76% | 1015.7 hPa | 0 mm | - | 3 W/m² | - |
| 1778064959 | -0.56° C | 76% | 1015.6 hPa | 0 mm | - | 1 W/m² | - |
| 1778064656 | -0.56° C | 76% | 1015.6 hPa | 0 mm | - | 0 W/m² | - |
| 1778064354 | -0.56° C | 76% | 1015.5 hPa | 0 mm | - | 0 W/m² | - |
| 1778064051 | -0.56° C | 75% | 1015.1 hPa | 0 mm | - | 0 W/m² | - |
| 1778063748 | -0.56° C | 75% | 1015.2 hPa | 0 mm | - | 0 W/m² | - |
| 1778063445 | -0.56° C | 75% | 1015.1 hPa | 0 mm | - | 0 W/m² | - |
| 1778063144 | -0.56° C | 75% | 1015 hPa | 0 mm | - | 0 W/m² | - |
| 1778062841 | -0.56° C | 75% | 1014.9 hPa | 0 mm | - | 0 W/m² | - |
| 1778062537 | -0.56° C | 75% | 1014.9 hPa | 0 mm | - | 0 W/m² | - |
| 1778062234 | -0.56° C | 75% | 1014.9 hPa | 0 mm | - | 0 W/m² | - |
| 1778061933 | -0.56° C | 75% | 1014.9 hPa | 0 mm | - | 0 W/m² | - |
* Rain latest hour (hover to see other rain measurements)
** Current wind speed in m/s (hover to see current wind gust speed)